User: anonymous   Login
Location: Unspecified
(0.0000°N, 0.0000°E)
Time: 06:35:23
(UTC+00:00)
Language:

OSCAR 3 - Orbit

View from above orbital plane
View from above orbital plane
View from above satellite
View from above satellite

Ground track
Ground track

The orbit data is extracted from the following two-line orbital elements,

1 01293U 65016F   21205.57027750  .00000222  00000-0  16623-3 0  9993
2 01293  70.0757 321.9201 0017290  17.3502 342.8196 14.06494300880491
Epoch (UTC): 24 July 2021 13:41:11
Eccentricity: 0.0017290
inclination: 70.0757°
perigee height: 859 km
apogee height: 884 km
right ascension of ascending node: 321.9201°
argument of perigee: 17.3502°
revolutions per day: 14.06494300
mean anomaly at epoch: 342.8196°
orbit number at epoch: 88049

The dashed part of the orbit path shows where the satellite is in the earth's shadow,  

DLR